Location: Rounton
(54.4000°N, 1.3500°W)
Time: 13:11:01
(UTC+00:00)

Transit 4A - Pass Details

Date: 05 December 2021
Orbit: 864 x 981 km, 66.8° (Epoch: 18 January)

Event Time Altitude Azimuth Distance (km) Brightness Sun altitude
Enters shadow 22:03:30 - 268° (W) 3,560 11.3 -51.7°
Rises 22:03:39 0° 268° (W) 3,507 - -51.7°
Reaches altitude 10° 22:06:26 10° 279° (W) 2,587 - -52.0°
Maximum altitude 22:11:43 31° 341° (NNW) 1,568 - -52.5°
Drops below altitude 10° 22:17:10 10° 42° (NE) 2,665 - -53.1°
Sets 22:20:05 0° 53° (NE) 3,630 - -53.3°
